TimeMDT,TemperatureF,Dew PointF,Humidity,Sea Level PressureIn,VisibilityMPH,Wind Direction,Wind SpeedMPH,Gust SpeedMPH,PrecipitationIn,Events,Conditions,WindDirDegrees,DateUTC
12:53 AM,48.0,39.9,74,29.97,10.0,Calm,Calm,-,N/A,,Clear,0,2013-06-02 06:53:00
1:53 AM,46.9,41.0,80,29.96,10.0,Calm,Calm,-,N/A,,Clear,0,2013-06-02 07:53:00
2:53 AM,46.9,41.0,80,29.94,10.0,NNE,3.5,-,N/A,,Clear,20,2013-06-02 08:53:00
3:53 AM,45.0,39.9,82,29.93,10.0,NE,3.5,-,N/A,,Clear,40,2013-06-02 09:53:00
4:53 AM,44.1,39.9,85,29.91,10.0,Calm,Calm,-,N/A,,Clear,0,2013-06-02 10:53:00
5:53 AM,42.1,37.9,85,29.92,10.0,Calm,Calm,-,N/A,,Clear,0,2013-06-02 11:53:00
6:53 AM,44.1,37.9,79,29.92,10.0,NE,3.5,-,N/A,,Clear,40,2013-06-02 12:53:00
7:53 AM,48.0,41.0,77,29.91,10.0,NE,5.8,-,N/A,,Clear,50,2013-06-02 13:53:00
8:53 AM,55.0,44.1,67,29.88,10.0,ENE,3.5,-,N/A,,Clear,70,2013-06-02 14:53:00
9:53 AM,62.1,39.9,44,29.83,10.0,Variable,4.6,-,N/A,,Clear,0,2013-06-02 15:53:00
10:53 AM,68.0,37.9,33,29.80,10.0,Variable,3.5,-,N/A,,Clear,0,2013-06-02 16:53:00
11:53 AM,73.0,37.0,27,29.76,10.0,SW,9.2,-,N/A,,Clear,220,2013-06-02 17:53:00
12:53 PM,75.9,36.0,23,29.73,10.0,WSW,13.8,19.6,N/A,,Clear,240,2013-06-02 18:53:00
1:53 PM,78.1,32.0,19,29.69,10.0,SW,15.0,-,N/A,,Clear,230,2013-06-02 19:53:00
2:53 PM,80.1,32.0,17,29.65,10.0,SSW,20.7,33.4,N/A,,Scattered Clouds,210,2013-06-02 20:53:00
3:53 PM,81.0,30.9,16,29.62,10.0,SW,21.9,33.4,N/A,,Clear,220,2013-06-02 21:53:00
4:53 PM,81.0,28.9,15,29.60,10.0,WSW,21.9,33.4,N/A,,Clear,240,2013-06-02 22:53:00
5:53 PM,77.0,34.0,21,29.59,10.0,SW,13.8,24.2,N/A,,Mostly Cloudy,230,2013-06-02 23:53:00
6:53 PM,73.9,36.0,25,29.58,10.0,SW,16.1,-,N/A,,Partly Cloudy,230,2013-06-03 00:53:00
7:53 PM,72.0,36.0,27,29.58,10.0,WSW,15.0,20.7,N/A,,Mostly Cloudy,240,2013-06-03 01:53:00
8:53 PM,66.0,39.9,38,29.62,10.0,WNW,11.5,17.3,N/A,,Overcast,300,2013-06-03 02:53:00
9:53 PM,60.1,43.0,53,29.68,10.0,NNW,4.6,-,N/A,,Overcast,330,2013-06-03 03:53:00
10:53 PM,54.0,37.9,55,29.74,10.0,NW,8.1,-,N/A,,Scattered Clouds,320,2013-06-03 04:53:00
11:53 PM,52.0,36.0,54,29.76,10.0,WNW,4.6,-,N/A,,Mostly Cloudy,300,2013-06-03 05:53:00